#timestamp,LO_Frequency,Hit,StdDev 
1579568415.7,286046998.3,N
1579568435.5,286046999.8,N
1579568455.3,286047000.9,N
1579568475.2,286047002.6,N
1579568495.0,286047001.3,N
1579568495.9,286047001.3,N
1579568515.8,286047001.6,N
1579568535.6,286047000.3,N
1579568555.4,286047002.7,N
1579568575.3,286047002.2,N
1579568595.1,286047002.0,N
1579568615.8,286047002.5,N
1579568635.7,286047000.9,N
1579568655.5,286047000.3,N
1579568675.4,286047002.7,N
1579568695.2,286047003.3,N
1579568715.0,286047005.8,Y
1579568715.9,286047005.8,P
1579568735.8,286047002.3,N
1579568755.6,286047004.3,N
1579568775.5,286047001.5,N
1579568795.3,286047002.3,N
1579568815.1,286047004.2,N
1579568835.9,286047001.9,N
1579568855.7,286047004.1,N
1579568875.6,286047004.0,N
1579568895.4,286047002.0,N
1579568915.2,286047001.5,N
1579568935.1,286047002.3,N
1579568936.0,286047002.3,N
1579568955.8,286047003.8,N
1579568975.6,286047001.6,N
1579568995.5,286047003.5,N
1579569015.3,286047007.4,Y
1579569035.2,286047005.1,P
1579569055.0,286047004.7,P
1579569055.9,286047004.7,P
1579569075.7,286047005.0,Y
1579569095.6,286047000.9,P
1579569115.4,286047000.4,N
1579569135.3,286047000.3,N
1579569155.1,286047000.5,N
1579569156.0,286047000.5,N
1579569175.8,286046999.3,N
1579569195.7,286047001.2,N
1579569215.5,286047001.2,N
1579569235.4,286046999.2,N
1579569255.2,286046999.5,N
1579569275.0,286046997.0,N
1579569275.9,286046997.0,N
1579569295.8,286046995.5,N
1579569315.6,286046997.5,N
1579569335.4,286046997.5,N
1579569355.3,286046997.8,N
1579569375.1,286046997.7,N
1579569395.9,286046999.1,N
1579569415.7,286046996.9,N
1579569435.5,286046997.8,N
1579569455.5,286046997.5,N
1579569475.4,286046996.2,N
1579569495.2,286046997.7,N
1579569515.0,286046998.4,N
1579569515.9,286046998.4,N
1579569535.8,286047001.1,N
1579569555.6,286046998.1,N
1579569575.5,286046998.8,N
1579569595.3,286046999.5,N
1579569615.1,286046994.9,N
1579569635.9,286046997.3,N
1579569655.7,286046999.0,N
1579569675.6,286046995.3,N
1579569695.4,286046995.5,N
1579569715.2,286046996.0,N
1579569735.1,286046995.4,N
1579569736.0,286046995.4,N
1579569755.8,286046995.5,N
1579569775.7,286046993.9,Y
1579569795.5,286046999.2,P
1579569815.3,286047001.2,N
1579569835.2,286046998.5,N
1579569855.0,286046997.1,N
1579569855.9,286046997.1,N
1579569875.7,286046999.2,N
1579569895.6,286046998.2,N
1579569915.4,286046998.0,N
1579569935.3,286046997.7,N
1579569955.1,286046997.0,N
1579569956.0,286046997.0,N
1579569975.8,286046997.5,N
1579569995.7,286046998.0,N
1579570015.5,286046995.0,Y
1579570035.4,286046998.9,P
1579570055.2,286047002.8,P
1579570075.0,286047002.8,N
1579570075.9,286047002.8,N
1579570095.8,286047000.1,N
1579570115.6,286047000.6,N
1579570135.5,286046999.0,N
1579570155.3,286046999.2,N
1579570175.1,286046997.8,N
1579570195.9,286046997.1,N
1579570215.7,286046997.7,N
1579570235.5,286046996.0,N
1579570255.4,286047011.9,Y
1579570275.2,286046998.7,P
1579570295.1,286046996.6,P
1579570296.0,286046996.6,N
1579570315.8,286046998.2,N
1579570335.6,286046998.9,N
1579570355.5,286046998.5,N
1579570375.3,286046998.4,N
1579570395.1,286046998.6,N
1579570415.9,286047000.8,N
1579570435.7,286046998.2,N
1579570455.6,286046998.9,N
1579570475.4,286047002.8,N
1579570495.2,286047004.4,N
1579570515.1,286047003.1,N
1579570516.0,286047003.1,N
1579570535.8,286047004.3,N
1579570555.6,286047001.8,N
1579570575.5,286047002.7,N
1579570595.3,286046999.9,N
1579570615.2,286047000.4,N
1579570635.9,286046998.5,N
1579570655.7,286047001.2,N
1579570675.6,286047000.8,N
1579570695.4,286046998.8,N
1579570715.3,286046999.2,N
1579570735.1,286046998.4,N
1579570736.0,286046998.4,N
1579570755.8,286047000.5,N
1579570775.7,286047000.6,N
1579570795.5,286047002.2,N
1579570815.3,286047002.7,N
1579570835.2,286046998.5,N
1579570855.0,286047001.1,N
1579570855.9,286047001.1,N
1579570875.8,286046999.1,N
1579570895.6,286046998.3,N
1579570915.4,286047000.5,N
1579570935.3,286046999.8,N
1579570955.1,286046999.9,N
1579570975.8,286047001.0,N
1579570995.7,286047002.3,N
1579571015.5,286046999.8,N
1579571035.4,286047000.7,N
1579571055.2,286047000.7,N
1579571075.0,286047001.1,N
1579571075.9,286047001.1,N
1579571095.8,286046998.5,N
1579571115.6,286046999.1,N
1579571135.4,286047001.2,N
1579571155.3,286046998.3,N
1579571175.1,286047002.2,N
1579571195.9,286046998.1,N
1579571215.7,286046998.7,N
1579571235.5,286046999.3,N
1579571255.4,286046997.8,N
1579571275.2,286046995.1,Y
1579571295.1,286046997.4,P
1579571296.0,286046997.4,N
1579571315.8,286047001.1,N
1579571335.6,286046998.2,N
1579571355.5,286046998.6,N
1579571375.3,286046998.6,N
1579571395.1,286046999.6,N
1579571415.9,286047001.0,N
1579571435.7,286047000.0,N
1579571455.6,286046998.8,N
1579571475.4,286046999.0,N
1579571495.2,286047001.1,N
1579571515.1,286046998.1,N
1579571516.0,286046998.1,N
1579571535.8,286046998.9,N
1579571555.7,286046998.5,N
1579571575.5,286046999.1,N
1579571595.3,286046996.6,Y
1579571615.2,286046998.3,P
1579571635.0,286046999.5,N
1579571635.9,286046999.5,N
1579571655.8,286047001.2,N
1579571675.6,286047000.3,N
1579571695.4,286047003.6,Y
1579571715.3,286047005.6,P
1579571735.1,286047003.6,N
1579571755.8,286047007.6,P
1579571775.7,286047005.1,N
1579571795.5,286047005.7,N
1579571815.4,286047003.6,N
1579571835.2,286047001.9,N
1579571855.0,286047001.8,N
1579571855.9,286047001.8,N
1579571875.8,286047001.3,N
1579571895.6,286047004.3,N
1579571915.5,286047001.5,N
1579571935.3,286047001.9,N
1579571955.1,286047002.5,N
1579571975.9,286047002.4,N
1579571995.7,286047003.3,N
